Regional Weather Roundup
Issued by NWS

Home | Current Version | Previous Version | Text Only | Print | Product List | Glossary Off
Versions: 1 2 3 4 5 6 7 8 9 10 11 12 13 14 15 16 17 18 19 20 21 22 23 24 25 26 27 28 29 30 31 32 33 34 35 36 37 38 39 40 41 42 43 44 45 46 47 48 49 50

000
ASUS45 KABQ 290301
RWRNM
WEATHER ROUNDUP FOR NEW MEXICO
NATIONAL WEATHER SERVICE ALBUQUERQUE NM
800 PM MST WED JAN 28 2015

NOTE: "FAIR" MEANS FEW OR NO CLOUDS BELOW 12,000 FEET AGL WITH NO
       SIGNIFICANT WEATHER OR OBSTRUCTIONS TO VISION.

      THIS PRODUCT IS RELEASED AS TWO VERSIONS.  ONE VERSION NEAR
      THE TOP OF THE HOUR CONTAINING PRELIMINARY DATA FROM ALBUQUERQUE
      AND OTHER STATIONS.  A FINAL VERSION WITH ADDITIONAL DATA IS
      ISSUED ABOUT 10 MINUTES AFTER THE HOUR.

NMZ501-503-504-510>518-290400-
NORTHWEST PLATEAU/NORTHCENTRAL MOUNTAINS

CITY           SKY/WX    TMP DP  RH WIND       PRES   REMARKS
FARMINGTON     CLEAR     42  26  53 SW5       30.25R
SANTA FE       CLEAR     41  26  55 NW6       30.23R
TAOS           PTCLDY    34  25  69 SE7       30.26R WCI  28

$$
NMZ402-403-502-505>509-290400-
WESTCENTRAL MOUNTAINS/SOUTHWEST MOUNTAINS

CITY           SKY/WX    TMP DP  RH WIND       PRES   REMARKS
GALLUP         MOCLDY    36  28  73 CALM      30.27R
GRANTS         CLEAR     36  29  76 NW3       30.29S
SILVER CITY    CLEAR     48  30  49 NW9       30.22S

$$
NMZ407-409-411-412-290400-
SOUTHERN DESERTS

CITY           SKY/WX    TMP DP  RH WIND       PRES   REMARKS
DEMING         CLEAR     54  33  45 CALM      30.16S
ALAMOGORDO     PTCLDY    54  32  43 E8        30.17S
T OR C         PTCLDY    55  35  47 E5        30.16S

$$
NMZ519>523-290400-
CENTRAL VALLEYS/CENTRAL HIGHLANDS

CITY           SKY/WX    TMP DP  RH WIND       PRES   REMARKS
ALBUQUERQUE    PTCLDY    50  31  48 N8        30.23R
DOUBLE EAGLE   CLEAR     45  28  53 NW9       30.25R
MORIARTY ARPT  FAIR      40  23  50 NW3       30.26R
CLINES CORNERS PTCLDY    40  26  57 NW7       30.25R
BELEN          FAIR      44  31  59 CALM      30.23R
SOCORRO        NOT AVBL

$$
NMZ524>526-539-540-290400-
SOUTHCENTRAL MOUNTAINS

CITY           SKY/WX    TMP DP  RH WIND       PRES   REMARKS
RUIDOSO        NOT AVBL

$$
NMZ527>531-290400-
NORTHEAST HIGHLANDS/NORTHEAST PLAINS

CITY           SKY/WX    TMP DP  RH WIND       PRES   REMARKS
LAS VEGAS      PTCLDY    40  22  48 N9        30.21R WCI  34
RATON          MOCLDY    43  24  47 NE8       30.20R
CLAYTON        PTCLDY    45  33  63 CALM      30.16R

$$
NMZ532>537-290400-
EASTCENTRAL PLAINS

CITY           SKY/WX    TMP DP  RH WIND       PRES   REMARKS
TUCUMCARI      PTCLDY    51  35  54 E5        30.09R
CANNON AFB     PTCLDY    53  33  46 W3        30.12R
CLOVIS AIRPORT CLEAR     48  30  49 W7        30.12R

$$
NMZ028-029-538-290400-
SOUTHEAST PLAINS

CITY           SKY/WX    TMP DP  RH WIND       PRES   REMARKS
ROSWELL        PTCLDY    53  40  61 W10       30.11R
ARTESIA        CLEAR     50  41  71 NW8       30.11R
CARLSBAD       CLEAR     56  39  53 SW9       30.10R
HOBBS          CLEAR     52  36  54 W5        30.13R


$$


USA.gov is the U.S. government's official web portal to all federal, state and local government web resources and services.